Stations météo

Publicité
Grenoble/St.Geoirs, France (7486): Température de l'air & dewpoint: 16.02.2017 07:00:00 - 22.02.2017 07:00:00 (CET)Grenoble/St.Geoirs, France (7486): Température de l'air 5cm: 16.02.2017 07:00:00 - 22.02.2017 07:00:00 (CET)Grenoble/St.Geoirs, France (7486): Température de l'air -20cm & Température de l'air -100cm: 16.02.2017 07:00:00 - 22.02.2017 07:00:00 (CET)Grenoble/St.Geoirs, France (7486): Vitesse du vent & gusts: 16.02.2017 07:00:00 - 22.02.2017 07:00:00 (CET)Grenoble/St.Geoirs, France (7486): Direction du vent: 16.02.2017 07:00:00 - 22.02.2017 07:00:00 (CET)Grenoble/St.Geoirs, France (7486): reduced air pressure: 16.02.2017 07:00:00 - 22.02.2017 07:00:00 (CET)Grenoble/St.Geoirs, France (7486): visibility: 16.02.2017 07:00:00 - 22.02.2017 07:00:00 (CET)Grenoble/St.Geoirs, France (7486): Ensoleillement: 16.02.2017 07:00:00 - 22.02.2017 07:00:00 (CET)Grenoble/St.Geoirs, France (7486): Quantités de précipitations: 16.02.2017 07:00:00 - 22.02.2017 07:00:00 (CET)
Date & Time tt [°C] td [°C] tt 5cm [°C] tt -20cm [°C] tt -100cm [°C] ff [km/h] ff [knt] fx [km/h] fx [knt] dd ppp [hPa] vv [km] sd [min] rr [mm]
22.02.2017 07:00:00 4,8 4,4 0,9 7,1 7,1 6 4 11 6 SE 1022,9 10 0 0,0
22.02.2017 06:00:00 4,9 3,9 0,2 7,1 7,1 3 1 9 5 SSE 1022,9 4,7 0 0,0
22.02.2017 05:00:00 6,5 5,1 2,0 7,1 7,0 0 0 7 4 N 1022,6 12 0 0,0
22.02.2017 04:00:00 7,6 6,4 5,0 7,1 7,0 4 2 11 6 SE 1022,5 21 0 0,0
22.02.2017 03:00:00 8,3 6,9 5,6 7,1 7,0 0 0 8 5 N 1022,7 20 0 0,0
22.02.2017 02:00:00 9,6 7,9 7,9 7,1 7,0 5 3 9 5 NE 1023,0 18 0 0,0
22.02.2017 01:00:00 8,8 7,2 7,9 7,1 7,0 3 2 10 5 NE 1023,6 18 0 0,0
22.02.2017 00:00:00 8,3 6,9 7,6 7,1 7,0 7 4 11 6 SE 1023,5 17 0 0,0
21.02.2017 23:00:00 8,9 7,2 7,6 7,0 7,0 3 2 7 4 ENE 1023,2 18 0 0,0
21.02.2017 22:00:00 10,1 7,3 9,0 7,0 7,1 0 0 8 4 N 1023,2 19 0 0,0
21.02.2017 21:00:00 10,5 7,7 8,5 7,0 7,0 5 3 13 7 NNE 1023,1 34 0 0,0
21.02.2017 20:00:00 10,3 7,7 9,3 6,9 7,0 6 4 16 9 ENE 1023,3 36 0 0,0
21.02.2017 19:00:00 10,8 7,7 9,7 6,8 7,0 9 5 16 9 NE 1023,3 34 0 0,0
21.02.2017 18:00:00 11,5 8,2 11,1 6,7 7,0 6 4 16 8 NE 1023,4 41 0 0,0
21.02.2017 17:00:00 12,2 8,3 12,2 6,5 7,0 7 4 13 7 ENE 1023,1 55 0 0,0
21.02.2017 16:00:00 12,4 8,3 13,3 6,4 7,0 10 5 25 13 NNW 1023,3 57 0 0,0
21.02.2017 15:00:00 12,6 8,3 13,5 6,3 7,0 16 9 22 12 NNW 1023,2 46 0 0,0
21.02.2017 14:00:00 13,3 8,4 15,6 6,2 7,0 14 8 21 12 N 1023,3 58 4 0,0
21.02.2017 13:00:00 13,3 8,1 15,7 6,1 7,0 2 1 11 6 S 1024,0 20 22 0,0
21.02.2017 12:00:00 12,3 7,2 13,7 6,1 7,0 2 1 5 3 W 1025,0 20 17 0,0
21.02.2017 11:00:00 9,8 6,3 10,7 6,1 7,0 0 0 5 3 N 1025,5 16 0 0,0
21.02.2017 10:00:00 8,0 6,0 9,0 6,1 7,0 4 2 7 4 ESE 1025,7 11 0 0,0
21.02.2017 09:00:00 6,7 5,5 5,6 6,1 7,0 0 0 4 2 N 1025,7 11 0 0,0
21.02.2017 08:00:00 5,1 4,2 4,5 6,2 7,0 0 0 8 4 N 1025,5 8 0 0,0
21.02.2017 07:00:00 5,0 4,3 2,2 6,2 7,0 3 2 9 5 ENE 1025,2 6 0 0,0
21.02.2017 06:00:00 3,7 2,7 0,7 6,2 7,1 2 1 7 4 SE 1025,3 6 0 0,0
21.02.2017 05:00:00 4,9 3,4 0,4 6,2 7,0 2 1 4 2 SW 1025,3 6 0 0,0
21.02.2017 04:00:00 6,0 4,3 3,5 6,2 7,0 3 2 7 4 ENE 1025,5 10 0 0,0
21.02.2017 03:00:00 6,1 4,4 5,1 6,2 7,0 6 3 9 5 ENE 1026,1 8 0 0,0
21.02.2017 02:00:00 5,8 3,5 4,6 6,3 7,0 3 2 6 3 ESE 1026,4 13 0 0,0
21.02.2017 01:00:00 5,4 2,9 4,0 6,3 7,0 4 2 11 6 ESE 1026,7 12 0 0,0
21.02.2017 00:00:00 4,3 2,5 1,1 6,3 7,1 7 4 10 6 SE 1026,6 12 0 0,0
20.02.2017 23:00:00 4,4 2,1 1,5 6,3 7,0 4 2 11 6 E 1026,9 14 0 0,0
20.02.2017 22:00:00 4,8 2,0 0,1 6,3 7,1 5 3 10 5 SE 1026,9 16 0 0,0
20.02.2017 21:00:00 5,6 2,1 3,3 6,3 7,0 9 5 15 8 E 1026,6 19 0 0,0
20.02.2017 20:00:00 9,0 2,8 3,1 6,2 7,0 6 3 19 10 ENE 1025,9 26 0 0,0
20.02.2017 19:00:00 8,1 2,5 2,5 6,1 7,0 4 2 12 6 ENE 1025,7 30 0 0,0
20.02.2017 18:00:00 9,5 3,0 7,2 6,0 7,1 7 4 20 11 N 1025,0 33 50 0,0
20.02.2017 17:00:00 11,2 3,7 14,0 5,9 7,1 11 6 24 13 NNW 1024,5 19 60 0,0
20.02.2017 16:00:00 11,9 3,6 14,4 5,8 7,0 11 6 18 10 NNW 1024,6 20 43 0,0
20.02.2017 15:00:00 11,5 3,0 16,0 5,7 7,0 9 5 26 14 N 1024,9 20 60 0,0
20.02.2017 14:00:00 11,1 3,6 15,3 5,6 7,1 12 7 27 15 N 1025,6 20 60 0,0
20.02.2017 13:00:00 10,8 3,3 14,8 5,6 7,0 12 7 22 12 NNE 1026,0 20 60 0,0
20.02.2017 12:00:00 9,8 3,1 13,5 5,6 7,0 14 8 25 13 NNW 1026,5 22 60 0,0
20.02.2017 11:00:00 9,0 2,8 10,2 5,7 7,1 0 0 5 3 N 1026,8 17 60 0,0
20.02.2017 10:00:00 6,4 2,7 4,8 5,8 7,1 2 1 10 5 SE 1027,4 14 60 0,0
20.02.2017 09:00:00 2,0 0,7 -0,9 5,9 7,1 5 3 9 5 ESE 1028,0 10 60 0,0
20.02.2017 08:00:00 -0,6 -1,4 -4,7 6,0 7,1 3 2 8 5 E 1028,0 9 6 0,0
20.02.2017 07:00:00 -1,7 -3,1 -4,9 6,0 7,1 6 3 8 5 E 1028,2 11 0 0,0
20.02.2017 06:00:00 -0,7 -2,0 -4,7 6,1 7,1 6 3 11 6 E 1027,9 12 0 0,0
20.02.2017 05:00:00 -0,8 -3,0 -4,6 6,2 7,0 5 3 9 5 ESE 1027,9 14 0 0,0
20.02.2017 04:00:00 1,3 -1,3 -2,7 6,3 7,1 3 1 11 6 E 1027,6 15 0 0,0
20.02.2017 03:00:00 2,5 -0,3 -1,3 6,3 7,0 4 2 19 11 NNW 1027,5 19 0 0,0
20.02.2017 02:00:00 4,7 0,5 -2,0 6,4 7,1 4 2 19 11 NNW 1027,5 20 0 0,0
20.02.2017 01:00:00 2,1 -0,8 -0,8 6,5 7,1 4 2 11 6 SE 1027,7 20 0 0,0
20.02.2017 00:00:00 2,3 -0,8 -0,6 6,5 7,0 4 2 12 6 W 1027,6 20 0 0,0
19.02.2017 23:00:00 2,7 -0,2 -2,7 6,5 7,1 2 1 8 4 SSW 1027,0 18 0 0,0
19.02.2017 22:00:00 1,2 -1,2 -3,3 6,5 7,1 3 2 8 4 S 1027,2 19 0 0,0
19.02.2017 21:00:00 2,3 -1,0 -2,3 6,5 7,1 6 3 9 5 ESE 1026,9 21 0 0,0
19.02.2017 20:00:00 4,3 1,0 0,1 6,4 7,1 10 5 13 7 SE 1026,1 23 0 0,0
19.02.2017 19:00:00 6,8 2,1 2,3 6,3 7,1 9 5 12 7 NNE 1025,5 31 0 0,0
19.02.2017 18:00:00 9,3 2,8 6,8 6,1 7,1 8 5 19 10 NNE 1025,0 44 25 0,0
19.02.2017 17:00:00 12,6 1,0 14,1 6,0 7,1 12 7 18 10 N 1024,3 51 60 0,0
19.02.2017 16:00:00 13,9 0,8 17,8 5,9 7,1 9 5 19 11 N 1024,1 54 60 0,0
19.02.2017 15:00:00 14,6 1,8 19,9 5,8 7,1 5 3 13 7 WNW 1024,3 48 60 0,0
19.02.2017 14:00:00 14,4 2,0 20,2 5,7 7,0 3 1 8 4 W 1025,0 40 60 0,0
19.02.2017 13:00:00 12,3 3,2 16,1 5,7 7,1 4 2 11 6 NNE 1026,0 40 60 0,0
19.02.2017 12:00:00 11,1 3,4 12,2 5,8 7,1 6 3 16 9 ENE 1026,9 24 60 0,0
19.02.2017 11:00:00 9,1 3,1 8,9 5,8 7,1 14 8 20 11 E 1027,0 14 60 0,0
19.02.2017 10:00:00 6,4 2,3 5,2 5,9 7,1 16 9 22 12 E 1027,5 13 60 0,0
19.02.2017 09:00:00 3,5 1,7 -0,1 6,0 7,1 18 10 22 12 E 1027,7 12 60 0,0
19.02.2017 08:00:00 -0,1 -1,1 -2,2 6,1 7,1 17 9 20 11 E 1027,7 11 4 0,0
19.02.2017 07:00:00 -0,5 -1,2 -3,1 6,1 7,1 16 9 19 10 E 1027,6 14 0 0,0
19.02.2017 06:00:00 -1,5 -2,8 -2,9 6,2 7,0 14 7 18 10 E 1027,8 13 0 0,0
19.02.2017 05:00:00 -0,9 -1,9 -6,1 6,3 7,1 16 9 18 10 E 1027,3 14 0 0,0
19.02.2017 04:00:00 -1,2 -2,2 -5,7 6,4 7,0 9 5 14 8 ESE 1027,0 11 0 0,0
19.02.2017 03:00:00 -2,2 -3,3 -5,6 6,5 7,0 11 6 14 8 E 1027,2 14 0 0,0
19.02.2017 02:00:00 -2,2 -3,2 -5,0 6,6 7,1 8 5 10 6 SE 1027,0 9 0 0,0
19.02.2017 01:00:00 -2,3 -3,6 -4,8 6,6 7,1 8 4 11 6 ESE 1027,1 7 0 0,0
19.02.2017 00:00:00 -0,9 -1,9 -3,8 6,6 7,0 8 5 11 6 E 1026,6 6 0 0,0
18.02.2017 23:00:00 -0,3 -1,4 -2,8 6,7 7,1 8 4 13 7 E 1026,2 6 0 0,0
18.02.2017 22:00:00 0,9 -0,3 -3,5 6,7 7,1 8 5 10 5 ESE 1025,7 6 0 0,0
18.02.2017 21:00:00 3,0 1,4 -2,5 6,7 7,1 4 2 8 5 ESE 1025,2 8 0 0,0
18.02.2017 20:00:00 4,3 1,3 -2,0 6,6 7,0 2 1 11 6 SE 1024,6 13 0 0,0
18.02.2017 19:00:00 5,9 1,8 2,5 6,5 7,0 9 5 16 9 E 1024,2 16 0 0,0
18.02.2017 18:00:00 7,9 3,7 6,8 6,4 7,0 7 4 19 10 NNE 1023,4 19 47 0,0
18.02.2017 17:00:00 10,2 3,5 12,5 6,3 7,0 13 7 20 11 NNE 1022,6 19 60 0,0
18.02.2017 16:00:00 11,0 4,2 14,9 6,2 7,0 13 7 20 11 NNE 1022,5 17 60 0,0
18.02.2017 15:00:00 11,7 4,2 18,0 6,1 7,0 7 4 16 8 WNW 1022,4 19 60 0,0
18.02.2017 14:00:00 10,9 3,0 16,4 6,1 7,0 10 6 18 10 WNW 1022,9 19 60 0,0
18.02.2017 13:00:00 10,7 3,7 14,4 6,1 7,0 6 4 13 7 SW 1023,5 19 60 0,0
18.02.2017 12:00:00 8,8 3,8 11,7 6,1 7,0 8 4 14 8 W 1024,4 20 60 0,0
18.02.2017 11:00:00 6,7 3,7 7,8 6,2 7,0 9 5 14 7 W 1025,0 16 60 0,0
18.02.2017 10:00:00 4,7 3,0 6,0 6,4 7,0 8 4 11 6 W 1025,0 10 60 0,0
18.02.2017 09:00:00 3,0 2,7 -3,2 6,4 7,0 4 2 10 6 NE 1025,1 15 60 0,0
18.02.2017 08:00:00 -0,7 -1,0 -6,3 6,5 7,0 2 1 8 4 E 1025,7 9 2 0,0
18.02.2017 07:00:00 -1,3 -1,6 -5,7 6,6 7,0 5 3 11 6 ESE 1026,1 1,3 0 0,0
18.02.2017 06:00:00 -2,5 -2,9 -5,3 6,7 7,0 7 4 13 7 ESE 1026,7 0,2 0 0,0
18.02.2017 05:00:00 -1,6 -2,2 -5,4 6,8 7,0 6 3 9 5 ESE 1026,6 0,2 0 0,0
18.02.2017 04:00:00 0,2 -0,2 -5,4 6,9 7,0 3 1 8 4 ESE 1026,5 3,0 0 0,0
18.02.2017 03:00:00 0,2 -0,8 -5,1 6,9 7,0 4 2 6 4 SSE 1027,0 4,1 0 0,0
18.02.2017 02:00:00 2,5 1,8 -3,3 7,0 7,0 0 0 8 4 N 1026,8 5 0 0,0
18.02.2017 01:00:00 2,3 1,0 -3,2 7,0 7,0 3 2 8 5 SSE 1027,0 9 0 0,0
18.02.2017 00:00:00 4,9 3,6 0,1 7,0 7,0 4 2 11 6 WNW 1026,8 13 0 0,0
17.02.2017 23:00:00 4,0 1,9 0,0 7,1 7,0 10 6 13 7 N 1027,1 16 0 0,0
17.02.2017 22:00:00 6,3 3,6 3,9 7,0 7,0 10 5 19 10 NNE 1026,9 20 0 0,0
17.02.2017 21:00:00 7,7 4,6 4,6 7,0 7,0 15 8 21 11 N 1026,5 23 0 0,0
17.02.2017 20:00:00 8,3 4,1 4,6 6,9 7,0 5 3 15 8 NNE 1026,4 28 0 0,0
17.02.2017 19:00:00 8,5 3,1 4,5 6,8 7,0 0 0 8 5 N 1026,6 54 0 0,0
17.02.2017 18:00:00 10,2 4,1 8,4 6,7 7,0 6 3 24 13 N 1026,2 46 27 0,0
17.02.2017 17:00:00 11,8 5,0 13,3 6,6 7,0 13 7 22 12 N 1026,0 26 48 0,0
17.02.2017 16:00:00 12,5 7,2 12,9 6,5 7,0 0 0 18 10 N 1025,9 19 14 0,0
17.02.2017 15:00:00 12,1 6,4 12,5 6,4 6,9 7 4 28 15 N 1026,1 44 0 0,0
17.02.2017 14:00:00 11,9 7,0 13,7 6,4 7,0 15 8 23 13 N 1026,7 15 17 0,0
17.02.2017 13:00:00 13,2 6,3 16,8 6,3 6,9 5 3 11 6 NNW 1026,9 16 37 0,0
17.02.2017 12:00:00 12,1 5,3 13,4 6,4 6,9 3 1 13 7 NE 1027,9 17 60 0,0
17.02.2017 11:00:00 9,8 5,2 9,9 6,4 7,0 8 5 16 8 E 1028,5 17 31 0,0
17.02.2017 10:00:00 7,9 4,7 7,1 6,5 6,9 13 7 16 9 ESE 1029,1 16 60 0,0
17.02.2017 09:00:00 4,6 3,6 0,3 6,6 6,9 11 6 18 10 E 1029,6 12 52 0,0
17.02.2017 08:00:00 0,8 0,1 -0,6 6,6 6,9 13 7 17 9 E 1030,2 10 0 0,0
17.02.2017 07:00:00 1,2 0,0 -0,2 6,7 6,9 13 7 16 9 E 1030,3 12 0 0,0
17.02.2017 06:00:00 0,9 0,0 -0,7 6,8 6,9 14 7 17 9 ESE 1030,5 10 0 0,0
17.02.2017 05:00:00 1,3 0,3 -1,5 6,8 6,9 11 6 15 8 ESE 1030,7 11 0 0,0
17.02.2017 04:00:00 1,0 0,1 -1,2 6,9 6,9 10 5 14 7 E 1030,7 9 0 0,0
17.02.2017 03:00:00 2,1 1,5 -0,6 7,0 6,9 14 8 16 8 E 1031,0 9 0 0,0
17.02.2017 02:00:00 1,7 1,1 -0,6 7,0 6,9 10 5 14 8 E 1031,3 8 0 0,0
17.02.2017 01:00:00 1,6 0,7 0,2 7,1 6,9 13 7 14 7 E 1031,6 8 0 0,0
17.02.2017 00:00:00 2,4 1,8 -0,3 7,1 6,9 10 5 13 7 ESE 1031,7 8 0 0,0
16.02.2017 23:00:00 2,4 1,7 0,8 7,1 6,9 12 6 16 8 E 1032,3 8 0 0,0
16.02.2017 22:00:00 2,7 1,8 0,8 7,1 6,9 10 5 12 7 ESE 1032,4 8 0 0,0
16.02.2017 21:00:00 3,4 2,1 0,4 7,1 6,9 9 5 11 6 ESE 1031,9 15 0 0,0
16.02.2017 20:00:00 5,0 3,7 1,6 7,0 6,9 8 4 9 5 ESE 1031,5 13 0 0,0
16.02.2017 19:00:00 8,7 4,9 1,9 6,9 6,9 5 3 7 4 SE 1030,6 20 0 0,0
16.02.2017 18:00:00 11,8 6,9 6,3 6,8 6,8 3 1 5 3 NW 1030,0 20 21 0,0
16.02.2017 17:00:00 13,6 6,5 15,1 6,6 6,8 4 2 6 4 W 1029,7 18 37 0,0
16.02.2017 16:00:00 14,1 6,2 15,6 6,5 6,8 3 2 10 6 WSW 1030,0 13 34 0,0
16.02.2017 15:00:00 15,0 6,3 20,5 6,5 6,8 2 1 13 7 W 1030,2 20 60 0,0
16.02.2017 14:00:00 14,0 5,4 19,6 6,4 6,9 5 3 10 5 N 1031,0 20 60 0,0
16.02.2017 13:00:00 13,9 6,0 17,9 6,4 6,8 4 2 9 5 W 1031,8 12 60 0,0
16.02.2017 12:00:00 12,5 5,2 13,0 6,4 6,9 5 3 18 10 ESE 1033,0 20 60 0,0
16.02.2017 11:00:00 10,1 4,2 9,8 6,5 6,8 15 8 25 13 E 1033,5 19 60 0,0
16.02.2017 10:00:00 8,1 3,7 7,0 6,5 6,8 19 10 25 14 E 1033,9 19 60 0,0
16.02.2017 09:00:00 5,3 3,1 1,7 6,6 6,8 14 8 19 11 E 1034,5 18 60 0,0
16.02.2017 08:00:00 2,1 0,8 1,4 6,7 6,8 15 8 22 12 E 1035,2 18 0 0,0
16.02.2017 07:00:00 4,0 1,7 0,8 6,8 6,8 16 9 22 12 E 1034,7 19 0 0,0

tt = Température de l'air
td = dewpoint
tt 5cm = Température de l'air 5cm
tt -20cm = Température de l'air -20cm
tt -100cm = Température de l'air -100cm
ff = Vitesse du vent
fx = gusts
dd = Direction du vent
ppp = reduced air pressure
vv = visibility
sd = Ensoleillement
rr = Quantités de précipitations

stations d'obs. à proximité